Weather History for YMEN - November, 2013

Change the Weather History Date:

Thursday, November 21, 2013

  Actual Average Record
Temperature  
Mean Temperature 64 °F -  
Max Temperature 75 °F - - ()
Min Temperature 52 °F - - ()
Degree Days  
Heating Degree Days 2    
Growing Degree Days 14 (Base 50)    
Moisture  
Dew Point 53 °F    
Average Humidity 80    
Maximum Humidity 100    
Minimum Humidity 30    
Precipitation  
Precipitation 0.01 in - - ()
Sea Level Pressure  
Sea Level Pressure 29.76 in    
Wind  
Wind Speed 8 mph ()    
Max Wind Speed 17 mph    
Max Gust Speed -    
Visibility 5.8 miles    
Events      
T = Trace of Precipitation, MM = Missing Value Source: Averaged Metar Reports

Daily Weather History Graph

Daily Weather History Graph

Search for Another Location

Airport or City:

Trip Planner

Search our weather history database for the weather conditions in past years. The results will help you decide how hot, cold, wet, or windy it might be!

Date:

Astronomy

Nov. 21, 2013 Rise Set
Actual Time 5:54 AM AEDT 8:14 PM AEDT
Civil Twilight 5:24 AM AEDT 8:44 PM AEDT
Nautical Twilight 4:48 AM AEDT 9:20 PM AEDT
Astronomical Twilight 4:08 AM AEDT 10:01 PM AEDT
Moon 11:06 PM AEDT (11/21) 8:37 AM AEDT (11/21)
Length of Visible Light 15h 19m
Length of Day
14h 19m
Waning Gibbous, 89% of the Moon is Illuminated
Nov 21
Waning Gibbous
Nov 26
Last Quarter
Dec 3
New
Dec 10
First Quarter
Dec 17
Full

Hourly Weather History & Observations

Time (AEDT) Temp. Dew Point Humidity Pressure Visibility Wind Dir Wind Speed Gust Speed Precip Events Conditions
12:00 AM 54 °F 52 °F 92% 29.83 in - NW 5.8 mph - -  
12:00 AM 51.8 °F 50.0 °F 94% 29.80 in 6.2 mi West 13.8 mph - N/A   Overcast
12:30 AM 51.8 °F 50.0 °F 94% 29.80 in 4.3 mi West 12.7 mph - N/A   Overcast
1:00 AM 51.8 °F 50.0 °F 94% 29.77 in 3.1 mi West 13.8 mph - N/A   Overcast
1:30 AM 51.8 °F 51.8 °F 100% 29.77 in 3.7 mi West 11.5 mph - N/A   Overcast
2:00 AM 51.8 °F 51.8 °F 100% 29.77 in 3.7 mi WNW 10.4 mph - N/A   Overcast
2:13 AM 51.8 °F 51.8 °F 100% 29.77 in 5.6 mi WNW 11.5 mph - N/A   Overcast
2:30 AM 51.8 °F 51.8 °F 100% 29.74 in 6.2 mi WNW 10.4 mph - N/A   Overcast
3:00 AM 52 °F 51 °F 96% 29.78 in - NW 4.6 mph - -  
3:00 AM 51.8 °F 51.8 °F 100% 29.74 in 6.2 mi WNW 10.4 mph - N/A   Overcast
3:30 AM 51.8 °F 51.8 °F 100% 29.74 in 6.2 mi WNW 9.2 mph - N/A   Overcast
4:00 AM 51.8 °F 50.0 °F 94% 29.74 in 5.6 mi WNW 9.2 mph - N/A   Overcast
4:17 AM 51.8 °F 51.8 °F 100% 29.74 in 3.7 mi WNW 9.2 mph - N/A   Overcast
4:30 AM 51.8 °F 51.8 °F 100% 29.74 in 4.3 mi WNW 9.2 mph - N/A   Overcast
5:00 AM 53.6 °F 51.8 °F 94% 29.74 in 6.2 mi WNW 5.8 mph - N/A   Overcast
5:30 AM 53.6 °F 51.8 °F 94% 29.74 in 6.2 mi WNW 4.6 mph - N/A   Overcast
6:00 AM 53 °F 52 °F 96% 29.77 in - North 4.6 mph - -  
6:00 AM 53.6 °F 51.8 °F 94% 29.74 in 6.2 mi WNW 5.8 mph - N/A   Overcast
6:30 AM 53.6 °F 51.8 °F 94% 29.74 in 6.2 mi NNW 4.6 mph - N/A   Overcast
7:00 AM 55.4 °F 51.8 °F 88% 29.77 in 6.2 mi NW 5.8 mph - N/A   Overcast
7:30 AM 55.4 °F 51.8 °F 88% 29.77 in 6.2 mi NW 6.9 mph - N/A   Overcast
8:00 AM 57.2 °F 53.6 °F 88% 29.77 in 6.2 mi NNW 6.9 mph - N/A   Overcast
8:30 AM 59.0 °F 53.6 °F 82% 29.77 in 6.2 mi NW 6.9 mph - N/A   Overcast
8:52 AM 60.8 °F 53.6 °F 77% 29.77 in 6.2 mi NW 5.8 mph - N/A   Mostly Cloudy
9:00 AM 58 °F 55 °F 86% 29.79 in - North 2.3 mph - -  
9:00 AM 60.8 °F 53.6 °F 77% 29.77 in 6.2 mi West 6.9 mph - N/A   Mostly Cloudy
10:00 AM 62.6 °F 53.6 °F 72% 29.77 in 6.2 mi NW 5.8 mph - N/A   Overcast
11:00 AM 68.0 °F 57.2 °F 68% 29.74 in 6.2 mi North 6.9 mph - N/A   Overcast
12:00 PM 68 °F 57 °F 59% 29.75 in - WSW 9.2 mph - -  
12:00 PM 69.8 °F 55.4 °F 60% 29.74 in 6.2 mi West 9.2 mph - N/A   Mostly Cloudy
1:00 PM 73.4 °F 50.0 °F 44% 29.71 in 6.2 mi NNW 15.0 mph - N/A   Scattered Clouds
2:00 PM 73.4 °F 48.2 °F 41% 29.71 in 6.2 mi North 12.7 mph - N/A   Overcast
3:00 PM 75 °F 50 °F 30% 29.72 in - West 13.8 mph - -  
3:00 PM 71.6 °F 55.4 °F 57% 29.71 in 6.2 mi South 5.8 mph - N/A   Mostly Cloudy
4:00 PM 73.4 °F 48.2 °F 41% 29.71 in 6.2 mi WNW 5.8 mph - N/A   Unknown
5:00 PM 71.6 °F 46.4 °F 41% 29.71 in 6.2 mi NNW 5.8 mph - N/A   Scattered Clouds
6:00 PM 71 °F 51 °F 39% 29.71 in - South 10.4 mph - -  
6:00 PM 71.6 °F 48.2 °F 43% 29.71 in 6.2 mi NNW 5.8 mph - N/A   Scattered Clouds
7:00 PM 66.2 °F 55.4 °F 68% 29.71 in 6.2 mi South 17.3 mph - N/A   Scattered Clouds
8:00 PM 62.6 °F 57.2 °F 82% 29.74 in 6.2 mi SSE 11.5 mph - N/A   Scattered Clouds
8:06 PM 62.6 °F 57.2 °F 82% 29.74 in 6.2 mi SSE 12.7 mph - N/A   Mostly Cloudy
8:30 PM 60.8 °F 55.4 °F 82% 29.77 in 6.2 mi SSE 10.4 mph - N/A   Overcast
9:00 PM 60 °F 53 °F 71% 29.78 in - SSW 3.5 mph - -  
9:00 PM 60.8 °F 55.4 °F 82% 29.77 in 6.2 mi SSE 11.5 mph - N/A   Overcast
9:30 PM 59.0 °F 55.4 °F 88% 29.80 in 6.2 mi South 10.4 mph - N/A   Overcast
10:00 PM 59.0 °F 53.6 °F 82% 29.80 in 6.2 mi South 9.2 mph - N/A   Overcast
10:30 PM 59.0 °F 53.6 °F 82% 29.80 in 6.2 mi SW 11.5 mph - N/A   Overcast
11:00 PM 59.0 °F 53.6 °F 82% 29.80 in 6.2 mi SW 11.5 mph - N/A   Overcast
11:01 PM 59.0 °F 53.6 °F 82% 29.80 in 6.2 mi SW 11.5 mph - N/A   Overcast
11:03 PM 59.0 °F 53.6 °F 82% 29.80 in 6.2 mi SW 11.5 mph - N/A   Overcast
11:30 PM 57.2 °F 53.6 °F 88% 29.80 in 6.2 mi SW 8.1 mph - N/A   Overcast
11:53 PM 57.2 °F 53.6 °F 88% 29.80 in 6.2 mi SW 9.2 mph - N/A   Overcast